Regional Weather Roundup
Issued by NWS Albany, NY

Home | Current Version | Previous Version | Graphics & Text | Print | Product List | Glossary Off
Versions: 1 2 3 4 5 6 7 8 9 10 11 12 13 14 15 16 17 18 19 20 21 22 23 24 25 26 27 28 29 30 31 32 33 34 35 36 37 38 39 40 41 42 43 44 45 46 47 48 49 50

000
ASUS41 KALY 270910
RWRALY

NEW YORK STATE HOURLY WEATHER ROUNDUP
NATIONAL WEATHER SERVICE ALBANY NY
500 AM EDT SAT AUG 27 2016

NOTE: "FAIR" INDICATES FEW OR NO CLOUDS BELOW 12,000 FEET WITH NO
SIGNIFICANT WEATHER AND/OR NO OBSTRUCTIONS TO VISIBILITY.

NYZ032-033-038>043-046>054-057>066-NYZ062>081-082-084-271000-
EAST


CITY           SKY/WX    TMP DP  RH WIND       PRES   REMARKS
ALBANY         CLEAR     63  60  90 CALM      30.15R
GLENS FALLS    PTCLDY    60  57  89 CALM      30.14R
POUGHKEEPSIE   CLEAR     60  59  96 CALM      30.14R
NEWBURGH       CLEAR     64  63  94 CALM      30.16R
MONTGOMERY     PTCLDY    61  60  97 CALM      30.15R FOG
WHITE PLAINS   CLEAR     69  60  73 N7        30.13R
ISLIP          CLEAR     73  61  65 N9        30.10R
NEW YORK CITY  CLEAR     77  61  57 N9        30.11R
CENTRAL PARK     N/A     75  57  53 MISG        N/A
$$

NYZ005>009-017-018-044>046-055-056-271000-
CENTRAL


CITY           SKY/WX    TMP DP  RH WIND       PRES   REMARKS
FULTON         CLEAR     60  58  92 S3        30.17R FOG
SYRACUSE       PTCLDY    64  61  90 CALM      30.16R
ROME           CLEAR     60  60 100 CALM      30.19R
ELMIRA         CLEAR     61  59  93 SW7       30.20R
BINGHAMTON     CLEAR     65  59  81 CALM      30.21R
MONTICELLO     CLEAR     61  59  94 CALM      30.20S
$$

NYZ026>034-041>043-087-271000-
NORTH


CITY           SKY/WX    TMP DP  RH WIND       PRES   REMARKS
WATERTOWN      PTCLDY    62  60  93 CALM      30.15R
FORT DRUM      NOT AVBL
MASSENA        MOCLDY    59  56  89 CALM      30.16R FOG
SARANAC LAKE   FOG       50  49  96 CALM      30.18R VSB 1/2
PLATTSBURGH    CLOUDY    66  61  84 CALM      30.13R
$$

NYZ001>004-010>016-019>021-085-271000-
WEST


CITY           SKY/WX    TMP DP  RH WIND       PRES   REMARKS
NIAGARA FALLS  CLEAR     63  59  87 E3        30.19
BUFFALO        PTCLDY    66  63  90 E3        30.19S
DUNKIRK        CLEAR     61  60  97 CALM      30.19S
JAMESTOWN      CLEAR     61  57  88 E3        30.22S
WELLSVILLE     FOG       57  56  96 NW3       30.26S VSB 1
ROCHESTER      CLEAR     66  62  87 CALM      30.19R
PENN YAN       PTCLDY    66  63  90 SW3       30.21R
$$

             KEY
       WCI = WIND CHILL INDEX
       VSB = VISIBILITY
       HX  = HEAT INDEX
$$



USA.gov is the U.S. government's official web portal to all federal, state and local government web resources and services.